Regional Weather Roundup
Issued by NWS Boston, MA

Current Version | Previous Version | Text Only | Print | Product List | Glossary Off
Versions: 1 2 3 4 5 6 7 8 9 10 11 12 13 14 15 16 17 18 19 20 21 22 23 24 25 26 27 28 29 30 31 32 33 34 35 36 37 38 39 40 41 42 43 44 45 46 47 48

000
ASUS41 KBOX 061310
RWRBOX

REGIONAL WEATHER ROUNDUP
NATIONAL WEATHER SERVICE TAUNTON MA
800 AM EST SAT FEB 06 2016

NOTE:  "FAIR" INDICATES FEW OR NO CLOUDS BELOW 12,000 FEET WITH NO
SIGNIFICANT WEATHER AND/OR OBSTRUCTIONS TO VISIBILITY.  THE FOLLOWING
OBSERVATION LOCATIONS DO NOT REPORT PRESENT WEATHER...PROVINCETOWN...
SMITHFIELD...BLOCK ISLAND...KEENE...AND OXFORD.

MAZALL-061400-
EASTERN MASSACHUSETTS

CITY           SKY/WX    TMP DP  RH WIND       PRES   REMARKS
BOSTON         MOSUNNY   26  17  68 W7        30.36S WCI  18
BEVERLY        SUNNY     20  14  77 W5        30.35R WCI  13
LAWRENCE       CLOUDY    18  15  88 CALM      30.36S
BEDFORD        CLOUDY     9   7  92 CALM      30.34
BLUE HILL        N/A     20  15  81 W10       30.31S WCI   9
NORWOOD        CLOUDY    14  13  95 CALM      30.37S
MARSHFIELD     SUNNY     23  19  86 W5        30.39R WCI  17
PLYMOUTH       CLOUDY    19  16  88 SW3       30.38R
TAUNTON          N/A     16  12  84 CALM      30.37R
NEW BEDFORD      N/A    N/A N/A N/A MISG      30.38R
$$

MAZALL-061400-
CAPE COD AND THE ISLANDS

CITY           SKY/WX    TMP DP  RH WIND       PRES   REMARKS
FALMOUTH       NOT AVBL
HYANNIS        SUNNY     23  18  81 W3        30.37R
CHATHAM        SUNNY     22  22 100 CALM      30.39R
PROVINCETOWN   SUNNY     31  22  69 NW8       30.38R WCI  23
NANTUCKET      SUNNY     30  22  72 NW6       30.39R WCI  24
MARTHAS VNYRD  SUNNY     20  19  96 CALM      30.39R
$$

MAZALL-061400-
CENTRAL AND WESTERN MASSACHUSETTS

CITY           SKY/WX    TMP DP  RH WIND       PRES   REMARKS
WORCESTER        N/A    N/A N/A N/A MISG      30.31R
FITCHBURG      CLOUDY    12   8  84 CALM      30.35S
ORANGE         CLOUDY     9   8  96 CALM      30.35R
SPRINGFIELD    CLOUDY    11   7  87 S3        30.36R
WESTFIELD      CLOUDY    12  11  95 S5        30.37R WCI   4
NORTH ADAMS    CLOUDY    21  16  81 VRB3      30.34R
PITTSFIELD     PTCLDY    20  16  84 CALM      30.30R
$$

RIZALL-061400-
RHODE ISLAND

CITY           SKY/WX    TMP DP  RH WIND       PRES   REMARKS
PROVIDENCE     CLOUDY    22  16  78 W8        30.39S WCI  12
NEWPORT        SUNNY     22  20  92 CALM      30.38R
BLOCK ISLAND   SUNNY     28  19  69 NW5       30.39R WCI  23
SMITHFIELD     CLOUDY    14  12  92 CALM      30.34S
WESTERLY       SUNNY     19  19 100 CALM      30.41R
$$

CTZALL-061400-
CONNECTICUT

CITY           SKY/WX    TMP DP  RH WIND       PRES   REMARKS
BRADLEY INTL   CLOUDY    19  15  84 CALM      30.38R
HARTFORD       CLOUDY    20  17  88 S3        30.41R
BRIDGEPORT     CLOUDY    22  18  85 CALM      30.42R
DANBURY        CLOUDY    16  11  80 CALM      30.40R
GROTON         SUNNY     20  19  96 N3        30.41R
NEW HAVEN      CLOUDY    19  19 100 CALM      30.41R
CHESTER        FAIR      27  18  69 W3        30.39R
MERIDEN        CLOUDY    15  13  91 CALM      30.41R
WILLIMANTIC    CLOUDY    13  11  92 CALM      30.40R
OXFORD         CLEAR    N/A N/A N/A CALM      30.37R
$$

MEZ002-015-021-024-NHZ003-005-008-011-012-014-VTZ005-008-061400-
NORTHERN NEW ENGLAND

CITY           SKY/WX    TMP DP  RH WIND       PRES   REMARKS
PORTLAND ME    MOSUNNY   13  11  92 CALM      30.33R
BANGOR ME      CLOUDY    14  11  87 SW5       30.27R WCI   6
CONCORD NH     CLOUDY    11   8  88 CALM      30.33R
MANCHESTER NH  CLOUDY    17  13  84 CALM      30.33R
NASHUA NH      CLOUDY    11   9  92 CALM      30.35S
PORTSMOUTH NH  PTSUNNY   18  13  81 SW2       30.34R
JAFFREY NH     CLOUDY    16  11  80 S6        30.30R WCI   7
KEENE NH       PTCLDY    10   7  85 CALM      30.35R
BURLINGTON VT  FLURRIES  27  17  66 S13       30.24S WCI  16
MT. WASHINGTON FOG        5   5 100 W59         N/A  VSB 0   WCI -26
$$

NYZ052-076-061400-
EASTERN NEW YORK

CITY           SKY/WX    TMP DP  RH WIND       PRES   REMARKS
ALBANY         MOCLDY    25  16  68 S7        30.35R WCI  17
NEW YORK CITY  PTCLDY    34  18  52 W9        30.42R WCI  27
$$

ANZALL-061400-
MARINE OBSERVATIONS

STATION/POSITION TIME  TEMP    WIND        PRES    VSBY  WAVE
                       AIR SEA DIR/SP/G                  HT/PER
                 (UTC) (F)     (DEG/KT/KT) (MB)    (MI)  (FT/S)
BOSTON BUOY      1250   31 41  290/ 12/ 16 1027.7R         4/ 8
BUZZARDS BAY     1200          310/  9/ 11 1029.4R
NANTUCKET SOUND  1250   31 39  310/ 12/ 14 1028.8R         1/ 9
MASS BAY-STELLWA 1204   29 43  280/ 14/ 16   N/A           4/ 8
ISLE OF SHOALS   1300   28     250/ 13/ 14 1027.0R
S OF BLOCK IS    NOT AVBL
$$

......................KEY.........................
  SKY/WX - SKY CONDITION/PRESENT WEATHER
  TMP    - TEMPERATURE IN FAHRENHEIT
  DWPT   - DEWPOINT IN FAHRENHEIT
  RH     - RELATIVE HUMIDITY IN PERCENT
  WIND   - DIRECTION AND SPEED IN MPH
  PRES   - MEAN SEA LEVEL PRESSURE IN INCHES OF HG
  WCI    - WIND CHILL INDEX
  VSB    - VISIBILITY IN MILES
  HX     - HEAT INDEX
  TC     - TEMPERATURE IN CELSIUS
  VRB    - VARIABLE WIND DIRECTION
  N/A    - NOT AVAILABLE



USA.gov is the U.S. government's official web portal to all federal, state and local government web resources and services.